Погода Душанбе

Погода Душанбе : погода сейчас, прогноз погоды и архив. Всё, что Вы хотите узнать о погоде Душанбе!

Поиск расширенной информации на нашем сайте:

Полезная информация: Море в Испании. Испания Oasis park какое там море.

Другие новости

Новости СМИ2

Главная страница сайта

Новости сайта

03.07.2017

Напоминаем, что на нашем специализированном сайте Метеоцентр.Азия вы можете получить высокодетализированные автоматические прогнозы погоды по пунктам России, СНГ и мира в авиационном формате (включающие направление и скорость ветра, видимость, явления погоды, количество и форму облачности, нижнюю и верхнюю границу облачности).

Рекомендуем: Самые интересные смотреть новые трейлеры онлайн абсолютно бесплатно

Погода Душанбе - сегодня

Время (UTC), дата Ветер
(°,м/с) 
Видим.   Явления Облачность Т
(°С)
Тd
(°С)
f(%) Тe
(°С)
Pmin
(гПа)
dP
(гПа)
Po
(мм)
O2
(г/м3)
Тmin Tmax R s Состояние
почвы
03 18.07.17 тихо ()   20000 м    4/0 средняя, верхняя 
[As op|Ci fib]
+25.2 +14.3 51 +35  1003.5  0.7  688  251  +18.1        сухая 
06 18.07.17 тихо ()   20000 м    3/0 средняя 
[Ac trans]
+30.4 +10 28 +33  1001.4  -0.6  687  247  +18.1         
09 18.07.17 230 (ЮЗ) 20000 м    4/0 средняя, верхняя 
[As op|Ci sp]
+33 +10.9 26 +37  1000.9  0.2  687  245           
12 18.07.17 230 (ЮЗ) 3{04}  20000 м    4/0 средняя 
[Ac trans]
+34.1 +10.4 24 +38  1000  -0.5  687  244           
15 18.07.17 270 (З) 10 км    4/3 1000 м кучево-дожд., верхняя 
[Cb cap|Ci sp]
+28.8 +9.8 31 +32  998.3  -3  685  248    +35.3       
18 18.07.17 тихо ()   н/о    3/3 1000 м 
[Cu med, cong]
+22.8 +11.4 49 +28  1001.8  1.7  686  253    +35.3       
21 18.07.17 тихо ()   н/о    ясно 
+20.2 +11.8 58 +26  1003.3  0.6  687  255           
00 19.07.17 тихо ()   10 км    3/0 верхняя 
[Ci sp]
+19.1 +11.7 62 +25  1004.1  0.3  687  256           
03 19.07.17 тихо ()   20000 м    ясно 
+23.8 +13.2 51 +32  1003  0.4  687  252  +16.4        сухая 
06 19.07.17 тихо ()   20000 м    3/0 средняя 
[As op]
+30.7 +12.2 32 +37  1000.2  -0.7  687  246  +16.4         
09 19.07.17 720 () 20000 м    3/0 средняя 
[As op]
+33.8 +11.1 25 +38  997.5  -1.7  685  244           
12 19.07.17 270 (З) 20000 м    3/0 средняя 
[Ac trans]
+34.2 +10.3 23 +38  994.7  -2.4  683  243           
15 19.07.17 270 (З) 10 км    3/3 1000 м верхняя 
[Cu med, cong|Ci fib]
+28.7 +13.1 38 +37  998.3  1.9  685  247    +35.7       
18 19.07.17 тихо ()   н/о    3/3 1000 м 
[Cu med, cong]
+23.9 +12.6 49 +31  998.7  -0.9  684  251    +35.7       
00 20.07.17 тихо ()   10 км    3/0 средняя 
[Ac trans]
+18.8 +10.6 59 +23  1003  1.5  686  257           
03 20.07.17 тихо ()   20000 м    3/0 средняя, верхняя 
[As op|Ci fib]
+25 +14 50 +34  999.5  -1.3  685  250  +16.3        сухая 
06 20.07.17 тихо ()   20000 м    3/0 верхняя 
[Ci sp]
+31 +12 31 +37  998.7  0.9  686  246  +16.3         
09 20.07.17 270 (З) 20000 м    3/0 средняя 
[Ac trans]
+34.2 +14.4 30 +44  995.7  -1.9  684  242           
12 20.07.17 тихо ()   20000 м    4/0 средняя, верхняя 
[As op|Ci sp]
+35.9 +11.1 22 +41  993.6  -1.6  683  241           
15 20.07.17 тихо ()   10 км    ясно 
+30.1 +12.3 34 +37  993.5  -1.5  682  245    +37.3       
18 20.07.17 тихо ()   н/о    ясно 
+25.1 +9.2 36 +27  996.7  1.4  683  250    +37.3       
00 21.07.17 тихо ()   10 км    ясно 
+19.7 +11.5 59 +25  1000.1  1.2  684  255           
03 21.07.17 тихо ()   20000 м    ясно 
+25.3 +14.4 51 +35  998.1  -0.8  684  249  +17.7        сухая 
06 21.07.17 270 (З) 20000 м    3/0 средняя 
[As op]
+32.3 +13 31 +40  995.7  -0.4  684  244  +17.7         
09 21.07.17 230 (ЮЗ) 2{04}  20000 м    3/0 верхняя 
[Ci sp]
+35.9 +9.7 20 +39  993.7  -0.9  683  241           
Время (UTC), дата Ветер
(°,м/с) 
Видим.   Явления Облачность Т
(°С)
Тd
(°С)
f(%) Тe
(°С)
Pmin
(гПа)
dP
(гПа)
Po
(мм)
O2
(г/м3)
Тmin Tmax R s Состояние
почвы

Для получения пояснительной информации подведите курсор к названию столбца.

ПОГОДА Душанбе - архив

Всё, что Вы хотите узнать о погоде Душанбе - удобно и подробно!

Выберите нужную дату (начиная с 1 января 2015* года) и нажмите кнопку "Найти".
Будут отображены архивные сводки погоды по пункту Душанбе, начиная с указанной даты.


Отображать данные в формате CSV (для использования в таблицах Excel)


Внимание! Наш архив погоды предназначен исключительно для личного некоммерческого использования в познавательных целях. Если Вам необходимы официальные справки о состоянии погоды (для производственных, юридических, коммерческих и т.п. целей), обращайтесь в органы Росгидромета.

*Примечание: данная дата относится к архиву по метеостанциям СССР (Россия, СНГ, Балтия).
Архив по метеостанциям Зарубежной Европы и Азии (кроме Китая) хранится 10 дней, по другим регионам земного шара (Китай, Африка, Америка, Австралия, Океания) - 1 день.

Душанбе - район местоположения метеостанции


Название, широта, долгота, высота метеостанции:
Душанбе 38.6°ш. 68.8°д. 800 м над ур. моря [Таджикистан]

Дополнительная информация

В oтличие oт бoльшинства пoгoдных сайтoв мы публикуем пoдрoбную метеoинфoрмацию в детальнoм прoфессиoнальнoм фoрмате.

Характеристики температуры и влажнoсти вoздуха измеряются на высoте 2 м в тени вдали oт зданий и деревьев.
Скoрoсть ветра измеряется на высoте 10 м (на урoвне рoста челoвека скoрoсть ветра ниже в 1.5-2 раза). Если метеoстанция нахoдится в гoрoде или в лесу, тo скoрoсть ветра занижена на 2-4 м/с пo сравнению с oткрытым местoм. Скoрoсть ветра над акватoриями крупных рек и oзёр, а также на вершинах хoлмoв на 2-5 м/с выше, чем в oбычных услoвиях.
Атмoсфернoе давление в разных тoчках местнoсти мoжет значительнo oтличаться oт давления на метеoстанции, в зависимoсти oт услoвий рельефа (при пoдъёме на 10 м давление пoнижается примернo на 1 мм рт.ст.).